�������r�C�����j�^�v���󋵏��
Date,Time,5�C6���@���p�r�C��,����,����(m/s)
2024/02/18,00:00,3.7,�쐼,1.1
2024/02/18,00:10,3.7,��,1.4
2024/02/18,00:20,3.6,��,1.2
2024/02/18,00:30,3.7,-,CALM
2024/02/18,00:40,3.7,-,CALM
2024/02/18,00:50,3.6,�k�k��,1.1
2024/02/18,01:00,3.9,�k�k��,1.9
2024/02/18,01:10,3.6,�k�k��,2.0
2024/02/18,01:20,3.8,�k�k��,1.7
2024/02/18,01:30,3.7,�k�k��,2.0
2024/02/18,01:40,3.7,�k�k��,2.5
2024/02/18,01:50,3.7,�k�k��,2.6
2024/02/18,02:00,3.7,�k�k��,3.1
2024/02/18,02:10,3.5,�k�k��,2.3
2024/02/18,02:20,3.9,�k,1.9
2024/02/18,02:30,3.6,�k�k��,2.0
2024/02/18,02:40,3.7,�k�k��,2.6
2024/02/18,02:50,3.8,�k�k��,2.2
2024/02/18,03:00,3.5,�k�k��,2.6
2024/02/18,03:10,3.8,�k�k��,3.3
2024/02/18,03:20,3.7,�k�k��,3.8
2024/02/18,03:30,3.7,�k�k��,3.5
2024/02/18,03:40,3.6,�k�k��,3.0
2024/02/18,03:50,3.7,�k�k��,3.2
2024/02/18,04:00,3.8,�k�k��,3.4
2024/02/18,04:10,3.6,�k�k��,3.5
2024/02/18,04:20,3.8,�k�k��,3.6
2024/02/18,04:30,3.9,�k,2.6
2024/02/18,04:40,3.8,�k�k��,2.0
2024/02/18,04:50,3.7,�k�k��,2.9
2024/02/18,05:00,3.8,�k�k��,2.9
2024/02/18,05:10,3.7,�k,2.8
2024/02/18,05:20,3.6,�k,3.3
2024/02/18,05:30,3.9,�k�k��,3.6
2024/02/18,05:40,3.7,�k,3.6
2024/02/18,05:50,3.7,�k,2.9
2024/02/18,06:00,3.7,�k,3.2
2024/02/18,06:10,3.7,�k�k��,3.4
2024/02/18,06:20,3.8,�k�k��,3.5
2024/02/18,06:30,3.7,�k�k��,3.0
2024/02/18,06:40,3.9,�k�k��,3.2
2024/02/18,06:50,3.7,�k�k��,2.3
2024/02/18,07:00,3.7,�k�k��,2.3
2024/02/18,07:10,3.9,�k�k��,2.6
2024/02/18,07:20,3.8,�k�k��,1.9
2024/02/18,07:30,3.6,�k�k��,0.9
2024/02/18,07:40,3.6,�k�k��,0.8
2024/02/18,07:50,3.7,�k,0.6
2024/02/18,08:00,3.8,-,CALM
2024/02/18,08:10,3.7,�쓌,1.1
2024/02/18,08:20,3.7,��쓌,1.9
2024/02/18,08:30,3.8,��쓌,2.6
2024/02/18,08:40,3.7,��,2.6
2024/02/18,08:50,3.5,��쓌,2.3
2024/02/18,09:00,3.6,��,1.9
2024/02/18,09:10,3.7,��쓌,2.3
2024/02/18,09:20,3.8,��쓌,3.3
2024/02/18,09:30,3.8,�쓌,3.0
2024/02/18,09:40,3.7,�쓌,3.1
2024/02/18,09:50,3.8,�쓌,3.2
2024/02/18,10:00,3.6,�쓌,3.0
2024/02/18,10:10,3.7,�쓌,4.3
2024/02/18,10:20,3.8,�쓌,4.0
2024/02/18,10:30,3.9,�쓌,4.0
2024/02/18,10:40,3.7,��쓌,4.7
2024/02/18,10:50,3.7,��쓌,4.6
2024/02/18,11:00,3.8,��쓌,5.5
2024/02/18,11:10,3.7,��쓌,7.5
2024/02/18,11:20,3.7,��쓌,7.9
2024/02/18,11:30,3.7,��쓌,9.2
2024/02/18,11:40,3.8,��쓌,8.7
2024/02/18,11:50,3.6,��쓌,8.8
2024/02/18,12:00,3.7,��쓌,8.7
2024/02/18,12:10,3.6,��쓌,9.5
2024/02/18,12:20,3.6,��쓌,10.2
2024/02/18,12:30,3.8,��,10.7
2024/02/18,12:40,3.7,��쓌,11.3
2024/02/18,12:50,3.7,��쓌,11.6
2024/02/18,13:00,3.6,��,9.8
2024/02/18,13:10,3.8,��쓌,11.8
2024/02/18,13:20,3.7,��쓌,12.2
2024/02/18,13:30,3.8,��,12.7
2024/02/18,13:40,3.6,��쓌,13.5
2024/02/18,13:50,3.8,��,11.3
2024/02/18,14:00,3.8,��,7.5
2024/02/18,14:10,3.7,��쓌,8.6
2024/02/18,14:20,3.8,��쓌,8.1
2024/02/18,14:30,3.7,��쓌,8.4
2024/02/18,14:40,3.7,��,9.9
2024/02/18,14:50,3.7,��,7.9
2024/02/18,15:00,3.7,��쓌,8.6
2024/02/18,15:10,3.8,��쓌,9.3
2024/02/18,15:20,3.6,��,7.8
2024/02/18,15:30,3.9,��,6.9
2024/02/18,15:40,3.8,��,6.8
2024/02/18,15:50,3.8,��,6.3
2024/02/18,16:00,3.8,��,6.4
2024/02/18,16:10,3.8,��,7.3
2024/02/18,16:20,3.9,��,7.3
2024/02/18,16:30,3.8,��,8.3
2024/02/18,16:40,3.6,��,8.5
2024/02/18,16:50,3.8,��,7.2
2024/02/18,17:00,3.6,��,8.5
2024/02/18,17:10,3.6,��,8.1
2024/02/18,17:20,3.8,��,7.8
2024/02/18,17:30,3.8,��,8.1
2024/02/18,17:40,3.8,��,7.4
2024/02/18,17:50,3.6,��,7.0
2024/02/18,18:00,3.6,��,6.6
2024/02/18,18:10,3.8,��,5.7
2024/02/18,18:20,3.5,��,5.5
2024/02/18,18:30,3.8,��쐼,4.8
2024/02/18,18:40,3.6,��,5.0
2024/02/18,18:50,3.8,��,5.8
2024/02/18,19:00,3.8,��쐼,5.5
2024/02/18,19:10,3.7,��쐼,5.9
2024/02/18,19:20,4.0,��쐼,6.8
2024/02/18,19:30,3.9,��쐼,7.1
2024/02/18,19:40,3.7,��쐼,6.5
2024/02/18,19:50,3.8,��쐼,5.9
2024/02/18,20:00,3.7,��쐼,7.4
2024/02/18,20:10,3.7,��쐼,8.0
2024/02/18,20:20,3.7,��쐼,8.3
2024/02/18,20:30,3.7,��쐼,8.3
2024/02/18,20:40,3.8,��쐼,7.4
2024/02/18,20:50,3.7,��쐼,7.9
2024/02/18,21:00,3.7,��쐼,8.2
2024/02/18,21:10,3.6,��쐼,7.8
2024/02/18,21:20,3.7,��쐼,6.8
2024/02/18,21:30,3.8,��,5.1
2024/02/18,21:40,3.8,��,5.1
2024/02/18,21:50,3.7,��,7.0
2024/02/18,22:00,3.7,��,7.7
2024/02/18,22:10,3.6,��,7.2
2024/02/18,22:20,3.8,��,7.7
2024/02/18,22:30,3.7,��,7.7
2024/02/18,22:40,3.6,��,7.8
2024/02/18,22:50,3.9,��,8.3
2024/02/18,23:00,3.8,��,8.2
2024/02/18,23:10,3.7,��,9.0
2024/02/18,23:20,3.5,��,8.8
2024/02/18,23:30,3.8,��,9.1
2024/02/18,23:40,3.7,��,9.1
2024/02/18,23:50,3.6,��,9.4
